Find OneWeb SL0272

NORAD ID: 48990 Int'l Des: 2021-060 Owner: ONEWEBN Country: UK Constellation: oneweb operational
LEOCIRCULARPOLARONEWEB_TYPE

实时位置

正在加载3D地球...

关于 OneWeb SL0272

正在加载描述...

即将过境

Passes for default location (London). Set your location on the main map for personalized predictions.

高度历史

Loading altitude history...

两行轨道根数

1 48990U 21060Z 26118.71898977 -.00000060 00000-0 -19170-3 0 9992
2 48990 87.9084 238.6083 0002181 100.4963 259.6414 13.16593443233102
Epoch: Apr 28, 2026 • Age: 12 hours

当前状态

高度 1207.1 km
速度 7.26 km/s
星下点 62.88°N, 125.4°E
发射日期 Jul 1, 2021
运行时间 4.8 years
类型 internet

技术详情

分类 Payload
质量 148.00 kg
干质量 140.00 kg
总质量 148.00 kg
长度 1.30 m
直径 1.00 m
跨度 5.00 m
形状 Trapezoid+2 pan
制造商 ONEWUS
平台类型 ARROW
阶段状态 In Orbit
所有者/国家 ONEWEBN/UK

Most Searched